DateTimeUTC,F1_A11,F1_S11,BsB_S11,BsG_S11,BsR_S11,BbsB_S11,BbsG_S11,BbsR_S11,BaB_A11,BaG_A11,BaR_A11,Tu_S11,T_S11,Uu_S11,U_S11,P_S11,T1_A11
2021-06-22T11:00:00Z,00040200,20000000,,,,,,,0000.42,-000.23,0000.34,18.0,24.7,03.3,02.2,0670.9,31.0
2021-06-22T11:01:00Z,00040200,20000000,,,,,,,-000.13,0000.19,-000.10,18.0,24.7,03.3,02.2,0670.9,31.1
2021-06-22T11:02:00Z,00040200,20000000,,,,,,,-000.15,0000.42,-000.19,18.0,24.7,03.3,02.2,0670.9,31.1
2021-06-22T11:03:00Z,00040200,60000000,,,,,,,0001.37,0000.82,0000.90,18.1,24.8,03.3,02.2,0670.9,31.1
2021-06-22T11:04:00Z,00040200,40000000,0001.54,0000.67,0000.16,0000.47,0000.45,0000.21,0000.23,0000.67,0000.50,18.3,24.7,03.6,02.4,0671.9,31.1
2021-06-22T11:05:00Z,00040200,00000000,0001.30,0001.15,0000.28,0000.11,0000.20,0000.21,0000.15,0000.17,-000.19,18.3,24.6,03.5,02.4,0671.9,31.1
2021-06-22T11:06:00Z,00040200,00000000,0001.18,0000.95,0000.42,-000.39,0000.25,0000.19,0001.26,0000.61,0000.74,18.3,24.6,03.6,02.5,0672.0,31.1
2021-06-22T11:07:00Z,00040200,00000000,0001.21,0000.85,0000.59,0000.23,0000.19,0000.02,0000.35,0000.92,0000.56,18.3,24.6,03.6,02.5,0671.9,31.1
2021-06-22T11:08:00Z,00040200,00000000,0001.74,0000.86,0000.62,0000.18,0000.13,0000.40,0000.59,0000.10,0000.33,18.2,24.5,03.6,02.5,0671.9,31.0
2021-06-22T11:09:00Z,00040200,00000000,0001.36,0000.85,0000.52,-000.03,0000.32,0000.43,0000.94,0001.30,0001.01,18.2,24.5,03.6,02.5,0671.9,31.0
2021-06-22T11:10:00Z,00040200,00000000,0001.44,0001.24,0000.53,-000.17,0000.17,0000.26,0000.72,0000.19,0000.17,18.2,24.5,03.7,02.5,0671.9,31.0
2021-06-22T11:11:00Z,00040200,00000000,0000.82,0001.17,0000.64,0000.48,0000.26,0000.10,0000.35,0000.57,0000.38,18.2,24.5,03.8,02.6,0671.9,31.0
2021-06-22T11:12:00Z,00040200,00000000,0000.48,0000.82,0000.35,0000.05,0000.07,0000.28,0000.96,0000.53,0000.78,18.1,24.4,03.7,02.5,0671.9,31.0
2021-06-22T11:13:00Z,00040200,00000000,0000.32,0000.83,0000.14,0000.15,0000.31,0000.15,0000.38,0000.76,0000.22,18.1,24.4,03.8,02.6,0671.9,31.0
2021-06-22T11:14:00Z,00040200,00000000,0000.75,0001.03,0000.44,0000.25,0000.28,0000.24,0000.72,0001.14,0000.78,18.2,24.4,03.7,02.5,0671.9,31.0
2021-06-22T11:15:00Z,00040200,00000000,0000.60,0000.58,0000.50,0000.03,0000.38,0000.06,0000.96,0000.44,0000.63,18.3,24.5,03.7,02.5,0672.0,31.0
2021-06-22T11:16:00Z,00040200,00000000,0001.19,0000.91,0000.61,-000.19,0000.17,-000.08,0000.51,0000.43,0000.46,18.4,24.5,03.8,02.6,0671.9,31.0
2021-06-22T11:17:00Z,00040200,00000000,0000.56,0000.85,0000.45,0000.27,0000.71,-000.12,0000.38,0000.70,0000.05,18.4,24.6,03.7,02.5,0672.0,31.0
2021-06-22T11:18:00Z,00040200,00000000,0001.50,0000.87,0000.29,0000.37,0000.27,-000.18,0001.16,0000.79,0000.75,18.4,24.6,03.9,02.6,0672.0,31.1
2021-06-22T11:19:00Z,00040200,00000000,0000.87,0001.12,0000.18,0000.22,0000.47,0000.19,0000.32,-000.07,0000.44,18.4,24.6,03.8,02.6,0672.0,31.1
2021-06-22T11:20:00Z,00040200,00000000,0001.29,0000.68,0000.43,0000.89,0000.22,0000.05,0000.90,0000.82,0000.41,18.3,24.6,03.8,02.6,0672.0,31.1
2021-06-22T11:21:00Z,00040200,00000000,0001.07,0000.83,0000.44,0000.24,0000.21,0000.18,0000.32,0000.66,0000.46,18.3,24.6,03.8,02.6,0672.0,31.1
2021-06-22T11:22:00Z,00040200,00000000,0000.96,0001.31,0000.30,0000.08,0000.37,0000.01,0000.35,0000.21,0000.33,18.3,24.5,03.8,02.6,0672.0,31.0
2021-06-22T11:23:00Z,00040200,00000000,0001.13,0000.79,0000.34,0000.16,0000.15,0000.28,0000.65,0000.86,0000.62,18.3,24.5,03.9,02.6,0672.0,31.0
2021-06-22T11:24:00Z,00040200,00000000,0000.98,0000.80,0000.38,-000.01,0000.19,0000.44,0000.79,0000.59,0000.43,18.2,24.5,03.8,02.6,0671.9,31.0
2021-06-22T11:25:00Z,00040200,00000000,0000.63,0001.26,0000.34,0000.59,0000.10,0000.17,0000.57,0000.52,0000.49,18.2,24.5,03.8,02.6,0672.0,31.0
2021-06-22T11:26:00Z,00040200,00000000,0001.30,0000.84,0000.48,0000.38,0000.12,-000.01,0001.02,0001.11,0000.71,18.2,24.5,03.7,02.5,0672.0,31.0
2021-06-22T11:27:00Z,00040200,00000000,0000.53,0001.07,0000.21,0000.42,0000.43,-000.11,-000.16,-000.19,-000.10,18.2,24.5,03.9,02.7,0672.0,31.0
2021-06-22T11:28:00Z,00040200,00000000,0000.66,0000.85,0000.58,0000.37,0000.61,0000.06,0001.48,0001.07,0001.40,18.2,24.4,03.9,02.6,0672.0,31.0
2021-06-22T11:29:00Z,00040200,00000000,0000.38,0000.58,0000.29,-000.39,0000.39,0000.28,0000.93,0000.84,0000.52,18.2,24.4,03.9,02.7,0672.0,31.0
2021-06-22T11:30:00Z,00040200,00000000,0000.82,0000.75,0000.60,0000.23,0000.11,-000.08,0000.33,0000.95,0000.03,18.3,24.5,03.9,02.7,0672.0,31.0
2021-06-22T11:31:00Z,00040200,00000000,0001.36,0001.11,0000.47,0000.61,0000.13,0000.35,0000.91,0000.78,0000.62,18.4,24.5,03.9,02.7,0672.0,31.1
2021-06-22T11:32:00Z,00040200,00000000,0000.82,0001.15,0000.63,0000.21,0000.42,0000.09,0000.68,-000.11,0000.36,18.5,24.6,04.0,02.7,0672.0,31.1
2021-06-22T11:33:00Z,00040200,00000000,0001.76,0001.12,0000.32,0000.70,0000.49,0000.25,0000.65,0001.14,0000.67,18.5,24.6,03.9,02.7,0672.0,31.1
2021-06-22T11:34:00Z,00040200,00000000,0000.90,0001.08,0000.37,0000.23,0000.27,0000.01,0000.81,0001.01,0000.58,18.5,24.7,04.0,02.7,0672.0,31.1
2021-06-22T11:35:00Z,00040200,00000000,0001.37,0001.02,0000.28,0000.23,0000.25,-000.13,0000.35,-000.02,0000.51,18.5,24.6,04.1,02.8,0672.0,31.1
2021-06-22T11:36:00Z,00040200,00000000,0001.36,0001.06,0000.46,0000.23,0000.19,0000.23,0001.09,0000.91,0000.78,18.5,24.6,03.9,02.7,0672.0,31.1
2021-06-22T11:37:00Z,00040200,00000000,0001.44,0000.97,0000.36,0000.32,0000.19,0000.30,0000.76,0000.77,0000.18,18.5,24.6,04.0,02.7,0672.0,31.1
2021-06-22T11:38:00Z,00040200,00000000,0001.36,0001.16,0000.36,-000.19,0000.27,0000.35,0000.16,0000.37,0000.30,18.4,24.6,04.0,02.8,0672.0,31.1
2021-06-22T11:39:00Z,00040200,00000000,0001.42,0001.11,0000.52,-000.11,0000.24,0000.46,0001.03,0000.98,0000.57,18.4,24.6,04.0,02.8,0672.0,31.1
2021-06-22T11:40:00Z,00040200,00000000,0001.39,0001.07,0000.31,-000.21,0000.24,0000.30,0000.84,0000.47,0000.60,18.4,24.6,04.1,02.8,0671.9,31.1
2021-06-22T11:41:00Z,00040200,00000000,0000.31,0000.96,0000.47,0000.09,0000.45,0000.03,0000.59,0000.62,0000.83,18.3,24.6,04.2,02.8,0671.9,31.0
2021-06-22T11:42:00Z,00040200,00000000,0001.37,0000.98,0000.58,0000.57,0000.30,0000.17,0000.58,0000.29,-000.16,18.3,24.5,04.1,02.8,0671.9,31.0
2021-06-22T11:43:00Z,00040200,00000000,0000.89,0000.66,0000.48,0000.77,0000.57,-000.24,0000.81,0000.59,0000.63,18.3,24.5,04.0,02.8,0671.9,31.0
2021-06-22T11:44:00Z,00040200,00000000,0000.58,0001.07,0000.54,-000.01,0000.03,0000.03,0000.16,0000.60,0000.75,18.4,24.5,04.1,02.8,0671.9,31.0
2021-06-22T11:45:00Z,00040200,00000000,0001.18,0000.72,0000.39,-000.28,0000.36,0000.24,0000.98,0001.19,0000.57,18.4,24.6,04.1,02.8,0672.0,31.0
2021-06-22T11:46:00Z,00040200,00000000,0001.31,0000.85,0000.71,0000.07,0000.42,0000.42,0000.85,0000.67,0000.47,18.5,24.6,04.1,02.8,0672.0,31.1
2021-06-22T11:47:00Z,00040200,00000000,0001.16,0000.92,0000.30,0000.00,0000.44,0000.19,0000.42,0000.32,0000.54,18.6,24.7,04.1,02.8,0672.0,31.1
2021-06-22T11:48:00Z,00040200,00000000,0001.49,0001.40,0000.26,-000.01,0000.71,0000.09,0000.81,0000.50,0000.32,18.6,24.7,04.1,02.8,0672.0,31.1
2021-06-22T11:49:00Z,00040200,00000000,0000.90,0001.09,0000.29,0000.01,0000.17,0000.15,0000.15,0000.28,0000.72,18.6,24.7,04.0,02.8,0672.0,31.1
2021-06-22T11:50:00Z,00040200,00000000,0001.07,0000.66,0000.33,-000.10,0000.38,0000.03,0001.35,0001.51,0000.67,18.6,24.7,04.1,02.8,0672.1,31.1
2021-06-22T11:51:00Z,00040200,00000000,0001.09,0000.58,0000.24,-000.13,0000.08,0000.20,0000.00,0000.06,0000.10,18.5,24.7,04.1,02.8,0672.0,31.1
2021-06-22T11:52:00Z,00040200,00000000,0001.59,0000.71,0000.52,0000.46,0000.32,-000.00,0001.04,0000.72,0000.15,18.5,24.7,04.1,02.8,0672.1,31.1
2021-06-22T11:53:00Z,00040200,00000000,0001.02,0000.89,0000.47,0000.33,0000.11,-000.05,0000.58,0000.60,0000.87,18.5,24.6,04.1,02.8,0672.1,31.1
2021-06-22T11:54:00Z,00040200,00000000,0001.32,0001.17,0000.57,0000.55,0000.49,0000.11,0000.77,0000.49,0000.62,18.5,24.6,04.1,02.8,0672.1,31.0
2021-06-22T11:55:00Z,00040200,00000000,0000.55,0000.97,0000.70,0000.66,0000.34,0000.13,0000.17,0000.13,0000.06,18.4,24.6,04.1,02.8,0672.1,31.1
2021-06-22T11:56:00Z,00040200,00000000,0001.68,0000.98,0001.01,0000.39,0000.46,0000.24,0000.85,0000.85,0000.65,18.4,24.6,04.0,02.8,0672.1,31.1
2021-06-22T11:57:00Z,00040200,40000000,,,,,,,-000.05,0000.05,-000.09,18.4,24.6,03.5,02.4,0672.2,31.0
2021-06-22T11:58:00Z,00040200,60000000,,,,,,,0000.11,-000.15,0000.04,18.2,24.7,03.9,02.6,0671.1,31.1
2021-06-22T11:59:00Z,00040200,20000000,,,,,,,0000.14,0000.49,0000.49,18.2,24.8,03.9,02.6,0671.0,31.1
